Location: Vancouver
(49.2500°N, 123.1330°W)
Time: 06:13:33
(UTC-08:00)

ISS - Visible Passes

Search period start: 04 December 2016 00:00
Search period end: 14 December 2016 00:00
Orbit: 401 x 410 km, 51.6° (Epoch: 04 December)

Date Brightness Start Highest point End Pass type
(mag) Time Alt. Az. Time Alt. Az. Time Alt. Az.
04 Dec -1.5 16:59:18 10° SSW 17:01:51 21° SE 17:04:26 10° E visible
04 Dec -2.6 18:34:43 10° WSW 18:37:22 54° WSW 18:37:22 54° WSW visible
05 Dec -3.1 17:42:51 10° SW 17:46:06 60° SSE 17:47:31 30° E visible
05 Dec -0.2 19:19:24 10° W 19:20:12 16° W 19:20:12 16° W visible
06 Dec -2.4 16:51:07 10° SW 16:54:13 39° SSE 16:57:20 10° ENE visible
06 Dec -2.9 18:27:21 10° W 18:30:18 60° NW 18:30:18 60° NW visible
07 Dec -3.4 17:35:19 10° WSW 17:38:37 84° NNW 17:40:23 25° ENE visible
07 Dec -0.5 19:12:03 10° WNW 19:13:03 18° WNW 19:13:03 18° WNW visible
08 Dec -3.0 18:19:58 10° W 18:23:07 54° NNW 18:23:07 54° NNW visible
09 Dec -3.1 17:27:53 10° W 17:31:10 61° N 17:33:10 21° ENE visible
09 Dec -0.8 19:04:37 10° WNW 19:05:50 21° WNW 19:05:50 21° WNW visible
10 Dec -3.1 18:12:33 10° WNW 18:15:49 55° N 18:15:53 55° NNE visible
11 Dec -3.0 17:20:27 10° W 17:23:41 54° N 17:25:58 18° ENE visible
11 Dec -1.2 18:57:04 10° WNW 18:58:39 26° WNW 18:58:39 26° WNW visible
12 Dec -3.3 18:05:01 10° WNW 18:08:18 66° NNE 18:08:46 57° ENE visible
13 Dec -3.1 17:12:56 10° WNW 17:16:11 57° N 17:18:56 14° E visible
13 Dec -1.7 18:49:29 10° WNW 18:51:37 35° W 18:51:37 35° W visible
